User: anonymous   Login
Location: Trois-Rivi�res
(46.3500°N, 72.5500°W)
Time: 18:33:22
(UTC-04:00)
Language:

Cosmos 1544 - Orbit

View from above orbital plane
View from above orbital plane
View from above satellite
View from above satellite

Ground track
Ground track

The orbit data is extracted from the following two-line orbital elements,

1 14819U 84027A   16177.71487378  .00001290  00000-0  50876-4 0  9993
2 14819  82.4842  25.6902 0013930 208.5689 151.4787 15.24557566761475
Epoch (UTC): 25 June 2016 17:09:25
Eccentricity: 0.0013930
inclination: 82.4842°
perigee height: 482 km
apogee height: 501 km
right ascension of ascending node: 25.6902°
argument of perigee: 208.5689°
revolutions per day: 15.24557566
mean anomaly at epoch: 151.4787°
orbit number at epoch: 76147

The dashed part of the orbit path shows where the satellite is in the earth's shadow,  

DLR